星链-3079 (STARLINK-3079 )

导读 | 豆包AI

STARLINK-3079是美国太空探索技术公司(SpaceX)“星链”星座的成员,属于低轨互联网通信卫星。它于2021年11月13日发射,加入星链网络,为全球范围,尤其偏远地区提供高速互联网接入服务,助力实现全球覆盖的卫星通信网络建设,推动星链星座组网部署进程,是SpaceX大规模星座计划的重要组成部分。

基本信息
目录编号:
49433
目录名称:
STARLINK-3079
国际标识:
2021-104AB
轨道中心:
EARTH
卫星名称:
星链-3079
卫星全名:
星链-3079 (STARLINK-3079 )
卫星状态:
在轨 (已飞行1629 天)
发射日期:
2021-11-13 UTC
国别 :
美国 (US)
星等 :
--
轨道信息
数据来源 国际轨道数据
星历时间: 2026-04-30T05:39:47+0800
21小时前
查看轨道信息
半长轴: 6917.895km
偏心率: 0.0001376
轨道倾角: 53.219°
近地点辐角 91.313°
升交点赤经 339.219°
平近点角 268.802°
近地点: 538.806km
远地点: 540.71km
周期: 95.438分钟
每日圈数: 15.088355
详细信息
固有亮度:
5
最大亮度:
2.5
卫星平台:
Starlink v1.5
覆盖范围:
全球
运营商:
太空探索技术公司
运营商所在国:
美国
制造商(研发单位):
太空探索技术公司
制造商所在国:
美国
使用方式:
暂无
卫星简介
星链(Starlink)计划是由太空探索技术公司(SpaceX)提出的一个巨型低轨卫星互联网星座项目,计划在2019年至2024年间在太空搭建由约1.2万颗卫星组成的“星链”网络,其中1584颗将部署在地球上空550千米处的近地轨道,并从2020年开始工作。该卫星仍在工作。
2D轨道图
3D轨道图
轨道高度分析图
轨道倾角分析图
轨道综合分析图
查看轨道综合分析图